Location: Isola Pescaroli
(45.0500°N, 10.1667°E)
Time: 10:24:09
(UTC+00:00)

Cosmos 2084 Rocket - Pass Details

Date: 03 March 2021
Orbit: 527 x 653 km, 62.8° (Epoch: 18 April)

Event Time Altitude Azimuth Distance (km) Brightness Sun altitude
Rises 18:24:14 0° 319° (NW) 2,810 7.7 -14.0°
Reaches altitude 10° 18:26:27 10° 318° (NW) 1,928 6.8 -14.4°
Maximum altitude 18:30:49 75° 233° (SW) 634 3.7 -15.1°
Enters shadow 18:34:52 13° 149° (SSE) 1,816 5.6 -15.8°
